EW4115 Weather Reports


Display with metric or nautical units.
time (UTC)temp
F
wind
direction
speed
MPH
gust
MPH
rain 1hr
in
rain 24hr
in
rain mn
in
humidity
%
barometer
mb
20260502123024 55 355 7.0 17.0 0.00 0.02 0.02 47 1017.4
20260502121536 56 345 6.0 13.0 0.00 0.02 0.02 47 1017.3
20260502114521 55 10 8.0 21.0 0.00 0.02 0.02 47 1017.5
20260502113020 56 6 5.0 15.0 0.00 0.02 0.02 48 1017.4
20260502111517 54 350 2.0 11.0 0.00 0.02 0.02 55 1017.4
20260502110019 54 326 4.0 12.0 0.00 0.02 0.02 56 1017.8
20260502104516 55 38 5.0 17.0 0.00 0.02 0.02 55 1017.7
20260502103020 54 334 3.0 13.0 0.00 0.02 0.02 57 1017.9
20260502101515 54 326 5.0 18.0 0.00 0.02 0.02 59 1018.1
20260502091510 53 19 6.0 17.0 0.00 0.02 0.02 60 1018.0
20260502070059 55 340 8.0 18.0 0.00 0.02 0.02 57 1017.7
20260502064602 54 10 4.0 17.0 0.00 0.02 0.02 59 1017.6
20260502063059 55 350 6.0 14.0 0.00 0.02 0.02 58 1017.7
20260502061554 54 48 4.0 15.0 0.00 0.02 0.02 60 1017.7
20260502060050 53 58 8.0 18.0 0.00 0.02 0.02 61 1017.7
20260502054548 53 46 5.0 16.0 0.00 0.02 0.02 64 1017.5
20260502053046 52 333 2.0 12.0 0.00 0.02 0.02 68 1017.7
20260502051544 52 324 4.0 12.0 0.00 0.02 0.02 70 1017.7
20260502050046 51 341 4.0 14.0 0.00 0.02 0.02 71 1017.7
20260502044539 51 286 2.0 9.0 0.00 0.02 0.02 74 1017.8
20260502043038 51 360 3.0 9.0 0.00 0.02 0.02 76 1017.7
20260502041534 51 14 2.0 10.0 0.02 0.02 0.02 77 1017.7
20260502040032 50 337 3.0 11.0 0.02 0.02 0.02 80 1017.8
20260502034530 50 332 2.0 8.0 0.02 0.02 0.02 81 1017.7
20260502033039 50 335 1.0 10.0 0.02 0.02 0.02 79 1017.4
20260502031524 51 345 2.0 11.0 0.00 0.01 0.00 76 1017.4
20260502030024 52 355 1.0 9.0 0.00 0.01 0.00 75 1017.4
20260502024522 52 342 0.0 5.0 0.00 0.01 0.00 73 1017.5
20260502023022 52 311 0.0 7.0 0.00 0.01 0.00 72 1017.4
20260502021520 52 333 2.0 9.0 0.00 0.01 0.00 71 1017.4
20260502020020 52 326 1.0 8.0 0.00 0.01 0.00 71 1017.4
20260502014526 51 344 0.0 5.0 0.00 0.01 0.00 74 1017.3
20260502013018 51 338 1.0 4.0 0.00 0.01 0.00 76 1017.5
20260502011518 51 333 1.0 8.0 0.00 0.01 0.00 76 1017.5
20260502010016 51 332 0.0 9.0 0.00 0.01 0.00 75 1017.5
20260502004531 51 57 2.0 11.0 0.00 0.02 0.00 74 1017.5
20260502003013 52 64 3.0 10.0 0.00 0.02 0.00 73 1017.6
20260502001511 52 324 2.0 6.0 0.00 0.02 0.00 75 1017.8
20260502000009 52 322 0.0 9.0 0.00 0.02 0.00 75 1017.9
20260501234507 52 331 0.0 8.0 0.00 0.03 0.00 75 1017.9
20260501233005 52 318 0.0 10.0 0.00 0.03 0.00 74 1018.1
20260501231503 52 333 0.0 6.0 0.00 0.03 0.00 74 1018.1
20260501230003 52 268 0.0 3.0 0.00 0.03 0.00 74 1018.1
20260501224600 53 342 0.0 5.0 0.00 0.03 0.00 73 1018.3
20260501223107 53 343 0.0 5.0 0.00 0.03 0.00 73 1018.6
20260501221557 53 341 1.0 5.0 0.00 0.03 0.00 73 1018.9
20260501220104 53 308 0.0 5.0 0.00 0.03 0.00 73 1018.8
20260501214555 53 66 0.0 4.0 0.00 0.03 0.00 73 1018.7
20260501213109 53 345 0.0 4.0 0.00 0.03 0.00 73 1018.9
20260501211552 53 39 2.0 9.0 0.00 0.03 0.00 72 1018.9
20260501210049 53 274 1.0 6.0 0.00 0.03 0.00 72 1019.0
20260501204550 53 339 2.0 12.0 0.00 0.03 0.03 71 1019.0
20260501203046 53 360 2.0 11.0 0.00 0.03 0.03 71 1018.8
20260501201545 54 355 0.0 9.0 0.00 0.03 0.03 72 1018.7
20260501200045 54 350 1.0 8.0 0.00 0.03 0.03 71 1018.9
20260501194552 53 42 2.0 8.0 0.00 0.03 0.03 72 1018.9
20260501193043 53 324 0.0 6.0 0.00 0.03 0.03 72 1018.9
20260501191542 53 45 2.0 9.0 0.00 0.03 0.03 73 1018.7
20260501190041 53 338 2.0 10.0 0.00 0.03 0.03 72 1018.6
20260501184540 53 9 2.0 8.0 0.00 0.03 0.03 73 1018.8
20260501183039 53 81 0.0 8.0 0.00 0.03 0.03 73 1018.6
20260501181537 53 350 3.0 8.0 0.00 0.03 0.03 74 1018.4
20260501180040 53 322 1.0 6.0 0.00 0.03 0.03 76 1018.3
20260501174547 53 98 3.0 11.0 0.00 0.03 0.03 74 1018.4
20260501173047 54 355 1.0 8.0 0.00 0.03 0.03 71 1018.3
20260501171535 54 337 0.0 8.0 0.00 0.03 0.03 72 1018.3
20260501170034 54 320 2.0 8.0 0.00 0.03 0.03 72 1018.0
20260501164543 54 338 2.0 13.0 0.00 0.03 0.03 71 1017.9
20260501163032 54 5 1.0 15.0 0.00 0.03 0.03 72 1017.8
20260501161532 54 323 0.0 8.0 0.00 0.03 0.03 71 1017.9
20260501160036 54 320 2.0 14.0 0.00 0.03 0.03 71 1017.7
20260501154558 54 324 2.0 14.0 0.00 0.03 0.03 72 1017.7
20260501153043 54 326 3.0 14.0 0.00 0.03 0.03 72 1017.8
20260501151526 54 345 3.0 18.0 0.00 0.03 0.03 72 1017.9
20260501150025 54 32 5.0 14.0 0.00 0.03 0.03 71 1017.9